Location: Limoges
(45.8500°N, 1.2500°E)
Time: 01:57:13
(UTC+01:00)

ISS - Pass Details

Date: 04 December 2020
Orbit: 418 x 419 km, 51.6° (Epoch: 17 January)

Event Time Altitude Azimuth Distance (km) Brightness Sun altitude
Rises 18:07:54 0° 296° (WNW) 2,368 0.7 -9.7°
Reaches altitude 10° 18:10:06 10° 304° (NW) 1,502 -0.5 -10.0°
Maximum altitude 18:13:17 39° 15° (NNE) 648 -3.1 -10.5°
Enters shadow 18:15:33 17° 79° (E) 1,156 -2.2 -10.9°
